Location: Cuiabá
(15.6014°S, 56.0979°W)
Time: 02:11:51
(UTC-04:00)

Hubble Space Telescope - Pass Details

Date: 02 December 2022
Orbit: 529 x 532 km, 28.5° (Epoch: 28 January)

Event Time Altitude Azimuth Distance (km) Brightness Sun altitude
Exits shadow 03:46:38 10° 7° (N) 1,739 3.1 -17.6°
Drops below altitude 10° 03:46:43 10° 8° (N) 1,759 3.2 -17.5°
Sets 03:49:39 0° 30° (NNE) 2,642 4.3 -16.9°
